Weather History for Spearfish, SD

Change the Weather History Date:

Friday, November 22, 2013

  Actual Average (KEFC) Record (KEFC)
Temperature  
Mean Temperature 20 °F -  
Max Temperature 32 °F 43 °F 65 °F (1974)
Min Temperature 8 °F 19 °F 2 °F (1975)
Degree Days  
Heating Degree Days 45    
Moisture  
Dew Point 0 °F    
Average Humidity 37    
Maximum Humidity 79    
Minimum Humidity 15    
Precipitation  
Precipitation 0.00 in - - ()
Sea Level Pressure  
Sea Level Pressure 30.47 in    
Wind  
Wind Speed 10 mph (West)    
Max Wind Speed 25 mph    
Max Gust Speed 36 mph    
Visibility 10 miles    
Events      
Averages and records for this station are not official NWS values.
T = Trace of Precipitation, MM = Missing Value Source: NWS Daily Summary

Daily Weather History Graph

Daily Weather History Graph

Search for Another Location

Airport:

Trip Planner

Search our weather history database for the weather conditions in past years. The results will help you decide how hot, cold, wet, or windy it might be!

Date:

Astronomy

Nov. 22, 2013 Rise Set
Actual Time 8:00 AM CST 5:21 PM CST
Civil Twilight 7:28 AM CST 5:53 PM CST
Nautical Twilight 6:53 AM CST 6:29 PM CST
Astronomical Twilight 6:18 AM CST 7:03 PM CST
Moon 9:59 PM CST (11/22) 11:43 AM CST (11/22)
Length of Visible Light 10h 24m
Length of Day
9h 20m
Waning Gibbous, 78% of the Moon is Illuminated
Nov 22
Waning Gibbous
Nov 25
Last Quarter
Dec 2
New
Dec 9
First Quarter
Dec 17
Full

Hourly Weather History & Observations

Time (CST) Temp. Windchill Dew Point Humidity Pressure Visibility Wind Dir Wind Speed Gust Speed Precip Events Conditions
12:15 AM 10.4 °F - -4.0 °F 52% 30.46 in 10.0 mi Calm Calm - N/A   Clear
12:35 AM 12.2 °F 6.1 °F -5.8 °F 45% 30.45 in 10.0 mi SW 3.5 mph - N/A   Clear
12:55 AM 10.4 °F 4.0 °F -4.0 °F 52% 30.45 in 10.0 mi NNW 3.5 mph - N/A   Clear
1:15 AM 10.4 °F - -5.8 °F 48% 30.44 in 10.0 mi Calm Calm - N/A   Clear
1:35 AM 8.6 °F - -7.6 °F 48% 30.44 in 10.0 mi Calm Calm - N/A   Clear
1:55 AM 19.4 °F 6.6 °F -9.4 °F 28% 30.43 in 10.0 mi SSW 12.7 mph - N/A   Clear
2:15 AM 21.2 °F 8.9 °F -11.2 °F 24% 30.42 in 10.0 mi WSW 12.7 mph 19.6 mph N/A   Clear
2:35 AM 21.2 °F 10.9 °F -13.0 °F 22% 30.42 in 10.0 mi WSW 9.2 mph 16.1 mph N/A   Clear
2:55 AM 23.0 °F 8.7 °F -9.4 °F 24% 30.41 in 10.0 mi SW 18.4 mph 23.0 mph N/A   Clear
3:15 AM 23.0 °F 7.6 °F -9.4 °F 24% 30.40 in 10.0 mi SW 21.9 mph 26.5 mph N/A   Clear
3:35 AM 23.0 °F 8.0 °F -9.4 °F 24% 30.40 in 10.0 mi SSW 20.7 mph 27.6 mph N/A   Clear
3:55 AM 24.8 °F 10.0 °F -9.4 °F 22% 30.39 in 10.0 mi SSW 21.9 mph 26.5 mph N/A   Clear
4:15 AM 24.8 °F 10.7 °F -9.4 °F 22% 30.39 in 10.0 mi SW 19.6 mph 25.3 mph N/A   Clear
4:35 AM 24.8 °F 11.5 °F -9.4 °F 22% 30.38 in 10.0 mi SW 17.3 mph 25.3 mph N/A   Clear
4:55 AM 26.6 °F 12.0 °F -9.4 °F 21% 30.37 in 10.0 mi SW 23.0 mph 31.1 mph N/A   Clear
5:15 AM 26.6 °F 11.7 °F -9.4 °F 21% 30.37 in 10.0 mi SW 24.2 mph 29.9 mph N/A   Clear
5:35 AM 26.6 °F 11.4 °F -9.4 °F 21% 30.37 in 10.0 mi SW 25.3 mph 32.2 mph N/A   Clear
5:55 AM 26.6 °F 11.4 °F -9.4 °F 21% 30.37 in 10.0 mi SSW 25.3 mph 31.1 mph N/A   Clear
6:15 AM 26.6 °F 11.4 °F -9.4 °F 21% 30.37 in 10.0 mi SW 25.3 mph 34.5 mph N/A   Clear
6:35 AM 28.4 °F 14.4 °F -9.4 °F 19% 30.38 in 10.0 mi SW 23.0 mph 28.8 mph N/A   Clear
6:55 AM 30.2 °F 16.8 °F -13.0 °F 15% 30.37 in 10.0 mi SW 23.0 mph 35.7 mph N/A   Clear
7:15 AM 30.2 °F 17.4 °F -9.4 °F 18% 30.38 in 10.0 mi SW 20.7 mph 32.2 mph N/A   Clear
7:35 AM 32.0 °F 21.2 °F -9.4 °F 17% 30.38 in 10.0 mi WSW 16.1 mph 27.6 mph N/A   Clear
7:55 AM 30.2 °F 18.5 °F -9.4 °F 18% 30.38 in 10.0 mi WSW 17.3 mph 23.0 mph N/A   Clear
8:15 AM 30.2 °F 19.3 °F -9.4 °F 18% 30.40 in 10.0 mi West 15.0 mph 20.7 mph N/A   Clear
8:35 AM 26.6 °F 15.2 °F -7.6 °F 22% 30.41 in 10.0 mi West 13.8 mph - N/A   Clear
8:55 AM 24.8 °F 14.6 °F -4.0 °F 28% 30.44 in 10.0 mi West 10.4 mph - N/A   Clear
9:15 AM 23.0 °F 17.0 °F -0.4 °F 36% 30.45 in 10.0 mi WNW 4.6 mph - N/A   Clear
9:35 AM 26.6 °F 19.1 °F -4.0 °F 26% 30.45 in 10.0 mi West 6.9 mph - N/A   Clear
9:55 AM 28.4 °F 21.2 °F -2.2 °F 27% 30.46 in 10.0 mi West 6.9 mph - N/A   Clear
10:15 AM 30.2 °F 21.9 °F -2.2 °F 25% 30.47 in 10.0 mi West 9.2 mph - N/A   Clear
10:35 AM 32.0 °F 23.0 °F -2.2 °F 23% 30.47 in 10.0 mi WNW 11.5 mph 16.1 mph N/A   Clear
10:55 AM 32.0 °F 21.2 °F -2.2 °F 23% 30.48 in 10.0 mi WNW 16.1 mph 20.7 mph N/A   Clear
11:15 AM 32.0 °F 21.2 °F -0.4 °F 25% 30.48 in 10.0 mi WNW 16.1 mph 20.7 mph N/A   Clear
11:35 AM 32.0 °F 20.8 °F 5.0 °F 32% 30.49 in 10.0 mi WNW 17.3 mph - N/A   Clear
11:55 AM 32.0 °F 22.5 °F 5.0 °F 32% 30.48 in 10.0 mi WNW 12.7 mph - N/A   Clear
12:15 PM 32.0 °F 21.2 °F 1.4 °F 27% 30.48 in 10.0 mi WNW 16.1 mph 19.6 mph N/A   Clear
12:35 PM 32.0 °F 21.6 °F 1.4 °F 27% 30.47 in 10.0 mi WNW 15.0 mph 25.3 mph N/A   Clear
12:55 PM 32.0 °F 20.8 °F 1.4 °F 27% 30.47 in 10.0 mi NW 17.3 mph 21.9 mph N/A   Clear
1:15 PM 32.0 °F 21.6 °F 1.4 °F 27% 30.48 in 10.0 mi NW 15.0 mph 20.7 mph N/A   Clear
1:35 PM 32.0 °F 20.8 °F 5.0 °F 32% 30.47 in 10.0 mi NW 17.3 mph 23.0 mph N/A   Clear
1:55 PM 32.0 °F 20.8 °F 1.4 °F 27% 30.48 in 10.0 mi NW 17.3 mph 21.9 mph N/A   Clear
2:15 PM 32.0 °F 23.0 °F 3.2 °F 30% 30.49 in 10.0 mi WNW 11.5 mph 20.7 mph N/A   Clear
2:35 PM 32.0 °F 22.5 °F 5.0 °F 32% 30.49 in 10.0 mi NW 12.7 mph - N/A   Clear
2:55 PM 32.0 °F 21.6 °F 6.8 °F 35% 30.50 in 10.0 mi NW 15.0 mph - N/A   Clear
3:15 PM 32.0 °F 22.5 °F 6.8 °F 35% 30.50 in 10.0 mi NW 12.7 mph - N/A   Clear
3:35 PM 32.0 °F 23.6 °F 8.6 °F 38% 30.51 in 10.0 mi WNW 10.4 mph - N/A   Clear
3:55 PM 32.0 °F 22.1 °F 6.8 °F 35% 30.51 in 10.0 mi West 13.8 mph 17.3 mph N/A   Clear
4:15 PM 32.0 °F 24.2 °F 6.8 °F 35% 30.52 in 10.0 mi WNW 9.2 mph - N/A   Clear
4:35 PM 32.0 °F 23.0 °F 6.8 °F 35% 30.52 in 10.0 mi WNW 11.5 mph - N/A   Clear
4:55 PM 32.0 °F 23.6 °F 6.8 °F 35% 30.52 in 10.0 mi WNW 10.4 mph - N/A   Clear
5:15 PM 28.4 °F 20.4 °F 6.8 °F 40% 30.51 in 10.0 mi West 8.1 mph - N/A   Clear
5:35 PM 26.6 °F 19.1 °F 6.8 °F 43% 30.51 in 10.0 mi West 6.9 mph - N/A   Clear
5:55 PM 24.8 °F 16.9 °F 6.8 °F 46% 30.51 in 10.0 mi West 6.9 mph - N/A   Clear
6:15 PM 26.6 °F 20.0 °F 6.8 °F 43% 30.51 in 10.0 mi WSW 5.8 mph - N/A   Clear
6:35 PM 26.6 °F 20.0 °F 5.0 °F 40% 30.52 in 10.0 mi West 5.8 mph - N/A   Clear
6:55 PM 23.0 °F 17.0 °F 6.8 °F 50% 30.53 in 10.0 mi WNW 4.6 mph - N/A   Clear
7:15 PM 24.8 °F - 5.0 °F 43% 30.54 in 10.0 mi Calm Calm - N/A   Clear
7:35 PM 24.8 °F 20.5 °F 5.0 °F 43% 30.55 in 10.0 mi WNW 3.5 mph - N/A   Clear
7:55 PM 23.0 °F 15.8 °F 5.0 °F 46% 30.56 in 10.0 mi NNE 5.8 mph - N/A   Clear
8:15 PM 23.0 °F 18.4 °F 6.8 °F 50% 30.56 in 10.0 mi SW 3.5 mph - N/A   Clear
8:35 PM 19.4 °F - 6.8 °F 58% 30.56 in 10.0 mi Calm Calm - N/A   Partly Cloudy
8:55 PM 19.4 °F - 8.6 °F 63% 30.56 in 10.0 mi Calm Calm - N/A   Clear
9:15 PM 17.6 °F - 8.6 °F 68% 30.56 in 10.0 mi Calm Calm - N/A   Clear
9:35 PM 15.8 °F 10.2 °F 6.8 °F 68% 30.56 in 10.0 mi SSW 3.5 mph - N/A   Clear
9:55 PM 15.8 °F 10.2 °F 8.6 °F 73% 30.56 in 10.0 mi West 3.5 mph - N/A   Mostly Cloudy
10:15 PM 17.6 °F 10.7 °F 8.6 °F 68% 30.56 in 10.0 mi WSW 4.6 mph - N/A   Overcast
10:35 PM 17.6 °F 8.2 °F 8.6 °F 68% 30.57 in 10.0 mi West 6.9 mph - N/A   Overcast
10:55 PM 17.6 °F 10.7 °F 8.6 °F 68% 30.56 in 10.0 mi SW 4.6 mph - N/A   Mostly Cloudy
11:15 PM 17.6 °F - 8.6 °F 68% 30.56 in 10.0 mi Calm Calm - N/A   Partly Cloudy
11:35 PM 12.2 °F - 6.8 °F 79% 30.57 in 10.0 mi Calm Calm - N/A   Clear
11:55 PM 15.8 °F 7.2 °F 8.6 °F 73% 30.57 in 10.0 mi SSW 5.8 mph - N/A   Scattered Clouds